Résultats

10KM LA PROVENCE
Poussins(garçons) : nés en 2006 et 2007. Édition 2015.

1.205 Km
15/11/2015 à 12:10:00 - Marseille (13)
96 arrivant(e)s.


 
Les autres classements de cet évènement




Place▲ Temps Dossard Nom Prenom Categ #Categ Sexe #Sexe Club Vit Moy Diplôme Partager
1 00:03:48 3057 LAZZARINI LUKA POM 1 M 1 SCO STE MARGUERITE MARSEILLE 19,03
2 00:04:28 2978 BEDE STEPHANE POM 2 M 2 SARDINES TRIATHLON 16,19
3 00:04:34 3095 SANTARELLI PAOLO POM 3 M 3 SCO STE MARGUERITE MARSEILLE 15,83
4 00:04:39 2900 CHARLES RAFAEL POM 4 M 4 15,55
5 00:04:41 2873 RENOUX JULES POM 5 M 5 SMUC 15,44
6 00:04:45 2904 DUTERTRE GABRIEL POM 6 M 6 15,22
7 00:04:46 2803 AIRAUDI PIERRICK POM 7 M 7 SCO STE-MARGUERITE MARSEILLE 15,17
8 00:04:51 2850 ISSLER PIERRE POM 8 M 8 SMUC 14,91
9 00:04:51 2899 CHALET LOUISON POM 9 M 9 14,91
10 00:04:58 2793 VINCENT LUIGI POM 10 M 10 OM ATHLETISME 14,56
11 00:05:00 2822 CARPENTIER ANTOINE POM 11 M 11 SMUC 14,46
12 00:05:02 2832 DE-FABRITUS MAEL POM 12 M 12 SMUC 14,36
13 00:05:03 3084 PERRIN PAUL POM 13 M 13 SCO STE MARGUERITE MARSEILLE 14,32
14 00:05:04 2816 BERAUT CLEMENT POM 14 M 14 SMUC 14,27
15 00:05:08 2855 LE-BELLEC MALO POM 15 M 15 SMUC 14,08
16 00:05:09 3103 TUSET-ANRES ANDREA POM 16 M 16 SCO STE MARGUERITE MARSEILLE 14,04
17 00:05:10 2977 DANOUY JOSUA POM 17 M 17 13,99
18 00:05:11 2795 ARNOUX AUGUSTIN POM 18 M 18 SARDINES TRIATHLON 13,95
19 00:05:11 3036 GIMMIG LOUIS POM 19 M 19 SCO STE MARGUERITE MARSEILLE 13,95
20 00:05:12 2895 BAUX MAXIME POM 20 M 20 13,9
21 00:05:12 2802 PIERRETON-CAYRON PAOLO POM 21 M 21 SARDINES TRIATHLON 13,9
22 00:05:13 2898 BRAJA-DESWARTE JULES POM 22 M 22 13,86
23 00:05:14 2938 MARTINEZ-PEREZ LORIS POM 23 M 23 13,82
24 00:05:14 2949 STUELSATZ ELWANN POM 24 M 24 ASPTT 13,82
25 00:05:16 3069 MERINO NICOLAS POM 25 M 25 SCO STE MARGUERITE MARSEILLE 13,73
26 00:05:16 2815 BEJAT ACHILLE POM 26 M 26 SMUC 13,73
27 00:05:17 2821 CARDAIRE ELIOT POM 27 M 27 SMUC 13,68
28 00:05:17 2901 DE-CARPENTIER PAUL POM 28 M 28 13,68
29 00:05:18 3061 MASCRET HUGO POM 29 M 29 SCO STE MARGUERITE MARSEILLE 13,64
30 00:05:19 2848 HORLIN OCTAVE POM 30 M 30 SMUC 13,6
31 00:05:21 3256 TSCHIRHARDT ILAN POM 31 M 31 13,51
32 00:05:21 2778 TORT RUBEN POM 32 M 32 MJC PLAN DE CUQUES 13,51
33 00:05:21 3075 OLGNIEZACK-UGOLINI ROMAN POM 33 M 33 SCO STE MARGUERITE MARSEILLE 13,51
34 00:05:21 2892 ALLESANT MAXIME POM 34 M 34 13,51
35 00:05:22 2912 LECOZ TITOUAN POM 35 M 35 13,47
36 00:05:22 2843 GHIONDA LUCIEN POM 36 M 36 SMUC 13,47
37 00:05:23 2784 GRANDGUILLOT OSCAR POM 37 M 37 OM ATHLETISME 13,43
38 00:05:23 2852 KERBOEUF ELIOT POM 38 M 38 SMUC 13,43
39 00:05:24 3073 MOLINAROLI-STELLA MATTEO POM 39 M 39 SCO STE MARGUERITE MARSEILLE 13,39
40 00:05:24 2788 PIERLOT ROMAN POM 40 M 40 OM ATHLETISME 13,39
41 00:05:24 3017 CHAFFANJON GASPARD POM 41 M 41 SCO STE MARGUERITE MARSEILLE 13,39
42 00:05:29 2916 MONFRET YVANN POM 42 M 42 13,19
43 00:05:30 2891 WEIMAN TILIO POM 43 M 43 SMUC 13,15
44 00:05:31 3107 VERRIEZ TERENCE POM 44 M 44 SCO STE MARGUERITE MARSEILLE 13,11
45 00:05:34 3030 DIAZ GWENHAEL POM 45 M 45 SCO STE MARGUERITE MARSEILLE 12,99
46 00:05:35 2869 MOREL MATHIS POM 46 M 46 SMUC 12,95
47 00:05:36 2805 AGRED JULES POM 47 M 47 SMUC 12,91
48 00:05:37 2878 ROSA ROMAIN POM 48 M 48 SMUC 12,87
49 00:05:37 2868 MOCTAR MARC-OLIVIER POM 49 M 49 SMUC 12,87
50 00:05:37 2915 MICHAUD DAMIEN POM 50 M 50 12,87
51 00:05:40 3067 MENDY KELYAN POM 51 M 51 SCO STE MARGUERITE MARSEILLE 12,76
52 00:05:40 2812 AVELINE MALO POM 52 M 52 SMUC 12,76
53 00:05:41 3065 MEBRATU TEODROS POM 53 M 53 SCO STE MARGUERITE MARSEILLE 12,72
54 00:05:41 2796 FARAUD BAPTISTE POM 54 M 54 SARDINES TRIATHLON 12,72
55 00:05:41 3025 DAOUDOU DARIUS POM 55 M 55 SCO STE MARGUERITE MARSEILLE 12,72
56 00:05:42 2814 BARONE NATHAN POM 56 M 56 SMUC 12,68
57 00:05:42 2903 DEROCHE BAPTISTE POM 57 M 57 12,68
58 00:05:43 2823 CATONI NOAH POM 58 M 58 SMUC 12,65
59 00:05:44 2910 GUGUEN MARIN POM 59 M 59 12,61
60 00:05:45 2806 AGRED VALENTIN POM 60 M 60 SMUC 12,57
61 00:05:45 2972 BLA,C AUGUSTE POM 61 M 61 12,57
62 00:05:47 2810 AMRANI YANIS POM 62 M 62 SMUC 12,5
63 00:05:48 2955 BALDINI LIAM POM 63 M 63 ASPTT 12,47
64 00:05:48 2840 FINO TRISTAN POM 64 M 64 SMUC 12,47
65 00:05:52 2781 ASSERAF AARON POM 65 M 65 OM ATHLETISME 12,32
66 00:05:52 3019 CIVET PAUL POM 66 M 66 SCO STE MARGUERITE MARSEILLE 12,32
67 00:05:53 2940 DEPUICHAFFRAY CLEMENT POM 67 M 67 12,29
68 00:05:55 2865 MERLE HUGO POM 68 M 68 SMUC 12,22
69 00:05:57 2827 CLOUTE THOMAS POM 69 M 69 SMUC 12,15
70 00:05:57 2959 VIOT PHILIPPE POM 70 M 70 ASPTT 12,15
71 00:06:01 2875 REY HELIO POM 71 M 71 SMUC 12,02
72 00:06:01 2923 ROCCO JULES POM 72 M 72 12,02
73 00:06:02 2950 DELLERUE BAPTISTE POM 73 M 73 ASPTT 11,98
74 00:06:03 2871 OTTAVI CLEMENT POM 74 M 74 SMUC 11,95
75 00:06:05 2874 REVEILLE BAPTISTE POM 75 M 75 SMUC 11,88
76 00:06:06 2942 PISAPIA ROMAIN POM 76 M 76 ASPTT MARSEILLE 11,85
77 00:06:06 3021 COMBO TEDDY POM 77 M 77 SCO STE MARGUERITE MARSEILLE 11,85
78 00:06:06 3049 HARRIR SAMY POM 78 M 78 SCO STE MARGUERITE MARSEILLE 11,85
79 00:06:08 2990 CANGIALOSI MATHIAS POM 79 M 79 AVIGNON LE PONTET TRIATHLON 11,79
80 00:06:09 3064 MBAKOP JULES-KEVIN POM 80 M 80 SCO STE MARGUERITE MARSEILLE 11,76
81 00:06:14 2876 REY ULYSSE POM 81 M 81 SMUC 11,6
82 00:06:16 3024 DALOD GABRIEL POM 82 M 82 SCO STE MARGUERITE MARSEILLE 11,54
83 00:06:19 3043 GRANOTTIER FLORIAN POM 83 M 83 SCO STE MARGUERITE MARSEILLE 11,45
84 00:06:22 2917 MOUSSU JULIAN POM 84 M 84 11,36
85 00:06:27 3020 COMBO FREDDY POM 85 M 85 SCO STE MARGUERITE MARSEILLE 11,21
86 00:06:28 2890 WALTER MATHIEU POM 86 M 86 SMUC 11,18
87 00:06:28 2800 PARMENTELAS JOAN POM 87 M 87 SARDINES TRIATHLON 11,18
88 00:06:31 2913 LITTOLFF BASTIEN POM 88 M 88 11,09
89 00:06:34 2811 ARMENGAUD-LUTINGER REMY POM 89 M 89 SMUC 11,01
90 00:06:36 2922 POMMIER GREGORY POM 90 M 90 10,95
91 00:06:44 2902 DELAHAYE THEO POM 91 M 91 10,74
92 00:06:45 2808 AMADI UGO POM 92 M 92 SMUC 10,71
93 00:06:53 2858 LE-MOINE VICTOR POM 93 M 93 SMUC 10,5
94 00:07:08 2905 ELBEZE DANNY POM 94 M 94 10,14
95 00:07:11 2911 IMMORDINO FABIO POM 95 M 95 10,06
96 00:09:22 2958 COGAN NOA POM 96 M 96 ASPTT 7,72